Regional Weather Roundup
Issued by NWS

Home | Current Version | Previous Version | Graphics & Text | Print | Product List | Glossary On
Versions: 1 2 3 4 5 6 7 8 9 10 11 12 13 14 15 16 17 18 19 20 21 22 23 24 25 26 27 28 29 30 31 32 33 34 35 36 37 38 39 40 41 42 43 44 45 46 47 48 49 50
447
ASUS43 KMKX 062121
RWRWI

WISCONSIN REGIONAL WEATHER ROUNDUP
NATIONAL WEATHER SERVICE MILWAUKEE/SULLIVAN WI
400 PM CDT FRI MAY 06 2016

NOTE: "FAIR" INDICATES FEW OR NO CLOUDS BELOW 12,000 FEET WITH NO
SIGNIFICANT WEATHER AND/OR OBSTRUCTIONS TO VISIBILITY.

WIZ001-002-006>008-014>016-023>028-062200-
NORTHWEST WISCONSIN

CITY           SKY/WX    TMP DP  RH WIND       PRES   REMARKS
SUPERIOR ARPT  MOSUNNY   94  46  18 NW16G24   29.58F HX  90
ASHLAND        MOSUNNY   88  46  23 SW14G24   29.62F HX  85
HAYWARD        SUNNY     89  45  21 W13G25    29.68F HX  86
SIREN          SUNNY     88  46  23 W16G24    29.69F HX  85
CUMBERLAND     SUNNY     86  43  22 SW16G24   29.73F HX  83
RICE LAKE      SUNNY     88  43  20 SW13G20   29.74F HX  85
CHETEK         SUNNY     88  49  25 W14G20    29.72F HX  85
LADYSMITH      SUNNY     87  44  22 W14       29.73F HX  84
EAU CLAIRE     MOSUNNY   89  44  20 W15G22    29.72F HX  86
MENOMONIE      SUNNY     90  43  19 SW18G24   29.73F HX  86
NEW RICHMOND   SUNNY     86  46  24 SW13G20   29.72F HX  83
OSCEOLA        MOSUNNY   88  48  24 SW15G25   29.74F HX  85
$$

WIZ003>005-009-010-017-018-062200-
NORTH CENTRAL WISCONSIN

CITY           SKY/WX    TMP DP  RH WIND       PRES   REMARKS
MANITOWISH WTR SUNNY     86  39  18 SW14G22   29.69F HX  83
ARBOR VITAE    SUNNY     87  28  12 W12G22    29.71F HX  83
WOODRUFF       SUNNY     87  28  12 W12G22    29.71F HX  83
RHINELANDER    SUNNY     88  33  14 W17G28    29.73F HX  84
EAGLE RIVER      N/A     88  25  10 W13G22    29.70F HX  83
LAND O LAKES   SUNNY     88  22   9 SW9G17    29.70F HX  84
PHILLIPS       MOSUNNY   86  44  23 W12G17    29.71F HX  83
TOMAHAWK       SUNNY     87  35  16 W15G26    29.73F HX  83
MEDFORD        SUNNY     84  47  27 W10G21    29.75F HX  82
MERRILL        SUNNY    N/A N/A N/A W14G23    29.75F
$$

WIZ029-030-035-036-043>047-062200-
CENTRAL WISCONSIN

CITY           SKY/WX    TMP DP  RH WIND       PRES   REMARKS
WAUSAU         SUNNY     88  42  20 W13G22    29.73F HX  84
MOSINEE        SUNNY     84  39  20 W16G26    29.77F HX  81
MARSHFIELD     SUNNY     88  39  17 W17G23    29.75F HX  84
STEVENS POINT  SUNNY     86  40  20 SW14      29.75F HX  83
WAUPACA        SUNNY     89  40  18 W7        29.74F HX  85
WAUTOMA        SUNNY     89  40  17 W14       29.75F HX  85
WISC RAPIDS    SUNNY     90  35  14 NW18G25   29.76F HX  86
CAMP DOUGLAS   SUNNY     88  47  24 W14G24    29.77F HX  85
$$

WIZ011>013-019>022-031-037>040-048>050-062200-
NORTHEAST WISCONSIN

CITY           SKY/WX    TMP DP  RH WIND       PRES   REMARKS
ANTIGO         SUNNY     84  42  22 W16       29.74F HX  81
SHAWANO        SUNNY     90  41  18 SW7G16    29.72F HX  86
OCONTO         MOSUNNY   81  49  33 S10       29.71F HX  80
STURGEON BAY   SUNNY     63  43  48 S23G29    29.77F
GREEN BAY      SUNNY     84  48  28 SW9       29.75F HX  82
MANITOWOC      SUNNY     62  42  47 MISG      29.79F
APPLETON       MOSUNNY   82  41  23 SW9       29.75F HX  80
CLINTONVILLE   SUNNY     88  41  19 W9        29.73F HX  84
OSHKOSH        SUNNY     82  49  31 SW10      29.76F HX  81
$$

WIZ032>034-041-042-053>061-062200-
SOUTHWEST WISCONSIN

CITY           SKY/WX    TMP DP  RH WIND       PRES   REMARKS
LA CROSSE      MOSUNNY   91  40  16 W10G20    29.76F HX  87
SPARTA         SUNNY     89  35  14 W13G20    29.77F HX  85
VIROQUA        SUNNY     88  34  15 SW22G28   29.82F HX  84
BOSCOBEL       SUNNY     90  36  14 W14G22    29.80F HX  86
PRAIRIE DU CHI SUNNY     88  36  15 SW15      29.79F HX  84
PLATTEVILLE    SUNNY     86  45  23 W16       29.83F HX  83
$$

WIZ056-057-062-063-064-067-068-062200-
SOUTH CENTRAL WISCONSIN

CITY           SKY/WX    TMP DP  RH WIND       PRES   REMARKS
REEDSBURG      SUNNY     85  47  26 W13       29.78F HX  83
BARABOO/DELLS  SUNNY     87  37  17 W14G22    29.78F HX  83
LONE ROCK      SUNNY     86  47  25 W12       29.79F HX  83
MINERAL POINT  SUNNY     86  41  20 W15G21    29.83F HX  83
MADISON        SUNNY     84  47  27 VRB5      29.80F HX  82
MIDDLETON      SUNNY     84  47  27 W12       29.81F HX  82
WATERTOWN      SUNNY     83  47  28 W9        29.80F HX  81
MONROE         SUNNY     82  45  26 W16G23    29.84F HX  80
JANESVILLE     MOSUNNY   84  45  24 W12G17    29.83F HX  82
$$

WIZ051-052-058>065-066-070>072-062200-
SOUTHEAST WISCONSIN

CITY           SKY/WX    TMP DP  RH WIND       PRES   REMARKS
MILWAUKEE      MOSUNNY   85  42  22 NW10G18   29.79F HX  82
WAUKESHA       SUNNY     79  45  29 W8        29.81F
MILWAUKEE/TIMM NOT AVBL
RACINE         SUNNY     71  44  37 SE9       29.82F
BURLINGTON     SUNNY     82  43  24 W8G16     29.81F HX  80
KENOSHA        SUNNY     83  49  30 W14       29.80F HX  81
FOND DU LAC    SUNNY     82  45  27 SW6       29.78F HX  80
SHEBOYGAN      SUNNY     71  46  40 SE13      29.79F
WEST BEND      SUNNY     82  36  18 W13       29.79F HX  80
JUNEAU         SUNNY     82  45  27 W10G17    29.81F HX  80
$$

LSZ147-162-062200-
LAKE SUPERIOR

STATION/POSITION TIME  TEMP    WIND        PRES    WAVE
                       AIR SEA DIR/SP/G            HT/PER
                 (UTC) (F)     (DEG/KT/KT) (MB)    (FT/S)
W MID LAKE BUOY  2050   51 37  200/ 12/ 12 1002.0F   1
DEVILS ISLAND    2100   75     300/ 44/ 62 1002.4R
SAXON HARBOR     2000   90     240/  7/ 16 1003.7F
$$

LMZ867-665-643>646-062200-
LAKE MICHIGAN

STATION/POSITION TIME  TEMP    WIND        PRES    WAVE
                       AIR SEA DIR/SP/G            HT/PER
                 (UTC) (F)     (DEG/KT/KT) (MB)    (FT/S)
CHAMBERS ISLAND  2000   70     140/  8/ 14 1007.8F
N MID LAKE BUOY  2050   45 39  190/ 14/ 16 1008.3F   2/ 4
NORTHPORT PIER   2000   58     160/  9/ 16 1008.8F
SISTER BAY       2004   68     170/ 16/ 25   N/A
ALGOMA LAKESHORE 2016          200/ 17/ 19   N/A
KEWAUNEE LAKESHO 2100   47     170/ 16/ 19 1008.1F
SHEBOYGAN LAKESH 2100   48     170/ 11/ 12 1009.7F
PORT WASHINGTON  2000   58     190/ 10/ 14 1010.2F
MILWAUKEE LAKESH 2110   53     170/  3/  5   N/A
S MID LAKE BUOY  2050   47 41  140/ 10/ 12 1010.7F   1/ 3
KENOSHA   LAKESH 2100   55     180/ 15/ 19 1009.1F
$$

TC  - TEMPERATURE IN CELSIUS
VSB - VISIBILITY IN STATUTE MILES
WCI - WIND CHILL INDEX
HX  - HEAT INDEX





USA.gov is the U.S. government's official web portal to all federal, state and local government web resources and services.